Theta_e
311 311 310 311 310 310 309 308 309 311 308 309 308 308 310 312 313 312 314 313 311 310 310 309 309 313 314 314 311 311 311 308 308 307 303 302 300 303 304 302 302 302 305 305
310 310 310 311 311 310 310 309 309 310 309 309 309 309 310 310 311 314 314 312 310 308 307 308 309 311 312 311 310 310 308 308 307 304 303 300 301 304 303 302 302 303 305 306
311 310 309 309 309 309 308 309 309 310 310 308 309 310 313 314 313 312 311 311 309 308 308 309 310 310 311 310 309 308 308 307 305 303 302 300 304 304 303 304 303 303 305 307
311 309 308 308 308 308 309 309 309 309 310 313 311 309 311 314 312 310 310 309 309 308 308 309 310 310 310 309 308 308 307 307 304 303 301 302 305 306 303 303 304 304 305 307
311 308 308 309 309 308 310 309 309 310 311 311 312 310 310 314 312 313 310 310 309 309 309 309 310 310 310 308 308 307 307 305 304 302 300 302 305 305 303 304 304 305 306 307
308 307 308 309 307 308 308 311 311 312 313 313 313 311 311 312 312 310 311 309 308 308 309 309 309 309 309 308 307 307 306 304 304 302 300 303 306 304 304 305 305 305 306 307
308 308 307 307 308 309 310 312 314 315 309 313 309 308 310 312 310 310 310 309 308 308 308 309 308 308 308 307 307 307 305 305 304 302 300 303 306 305 305 306 306 306 306 307
311 310 308 307 309 309 310 312 316 315 318 317 308 307 312 312 311 311 308 308 308 308 308 308 308 308 307 307 307 306 305 305 304 302 300 303 306 305 306 306 306 307 307 307
312 313 306 306 306 307 309 308 310 310 304 312 314 312 312 309 307 307 307 308 307 308 308 308 307 307 307 307 307 306 306 306 304 302 300 303 306 306 306 306 306 307 307 308
313 311 304 305 306 306 307 307 308 311 312 315 314 313 314 310 308 307 306 306 306 306 307 307 307 307 307 307 307 306 306 306 305 303 300 302 305 306 307 307 307 307 308 308
309 313 306 305 306 308 305 307 308 311 312 320 318 314 311 310 309 309 308 309 308 306 305 306 307 307 307 307 307 307 306 306 305 304 300 302 304 307 307 307 307 308 308 308
309 310 308 308 305 304 305 308 309 315 314 310 313 313 309 308 307 309 309 309 309 308 307 305 305 306 306 307 307 307 307 306 306 305 302 301 304 307 307 307 308 308 309 308
307 310 310 309 307 304 305 307 308 311 311 309 312 314 309 308 309 309 309 308 308 307 308 307 305 305 305 306 306 307 306 306 306 305 304 301 304 307 308 308 309 309 310 309
309 308 311 312 311 307 305 306 307 309 310 313 312 312 311 309 308 309 308 308 308 308 308 308 307 306 304 304 305 306 306 306 306 305 304 302 303 306 308 309 309 311 311 310
308 304 301 303 305 307 307 305 305 305 310 312 311 308 312 310 309 308 307 309 309 309 309 308 308 307 306 305 304 304 305 306 306 305 304 303 303 305 308 309 309 311 311 310
306 306 302 301 301 304 306 306 303 302 305 303 304 304 307 308 309 307 309 309 309 308 306 306 307 307 307 307 306 303 303 304 305 305 304 303 302 305 307 308 309 310 310 310
307 303 305 305 300 302 303 304 305 305 305 306 305 308 308 309 308 307 309 309 308 308 308 305 305 306 307 307 307 307 303 302 304 304 304 303 302 305 307 308 310 310 309 310
306 307 309 306 300 302 306 306 306 305 305 305 307 308 308 308 307 308 308 308 308 308 308 308 305 305 306 307 307 308 306 302 302 303 304 303 302 305 308 309 310 308 309 310
307 307 307 305 302 308 307 305 306 308 308 307 305 307 307 307 308 306 307 307 307 306 307 308 308 307 304 306 306 306 306 304 302 302 304 303 302 304 308 311 309 309 310 311
306 308 307 307 307 307 309 306 307 307 307 307 307 306 305 306 308 305 305 304 303 303 304 306 308 309 310 305 306 306 305 304 303 301 303 303 302 303 307 311 309 310 311 311
308 308 304 303 302 307 306 305 306 306 309 307 308 307 305 306 307 305 302 300 301 301 302 303 305 307 307 310 307 305 306 305 303 302 301 302 302 302 307 311 309 310 311 312
307 308 307 309 309 308 305 304 306 308 308 309 308 307 306 305 303 301 299 300 300 301 302 302 302 303 304 306 309 308 304 307 305 302 301 302 301 301 306 311 309 310 311 312
306 305 305 307 306 305 305 307 307 308 308 307 307 307 307 302 300 300 299 299 299 300 301 301 301 301 302 302 304 308 309 303 306 304 301 302 301 300 303 310 310 309 310 311
302 301 302 301 303 303 305 306 308 308 308 307 306 305 302 300 299 298 298 298 299 300 301 301 302 301 299 300 302 305 309 309 303 305 302 301 301 301 301 307 310 309 309 310
299 299 297 301 300 302 304 305 306 307 305 304 302 301 300 299 298 298 298 299 300 300 301 301 301 301 301 299 299 302 305 309 309 304 303 301 301 301 301 303 308 310 310 309
299 299 300 301 302 303 303 305 305 305 303 301 300 299 298 298 298 298 298 299 299 299 299 299 298 298 299 299 297 298 302 306 308 308 303 303 302 300 300 300 305 309 311 310
Wind_Speed
8 4 8 9 11 10 4 6 7 3 3 0 6 14 17 16 20 16 17 7 6 9 11 13 11 13 16 16 14 12 10 9 8 5 6 9 8 8 6 6 7 8 9 8
3 10 9 7 5 9 2 5 6 6 4 1 7 15 23 14 10 1 11 11 13 12 10 13 16 17 17 15 12 11 10 9 6 5 6 8 6 5 5 4 6 9 7 7
6 1 3 6 3 4 6 7 5 4 1 9 6 8 5 2 7 9 6 10 10 12 15 14 16 16 16 14 12 10 9 9 4 5 5 5 2 3 2 3 7 6 5 5
7 4 5 5 6 7 5 2 5 1 2 3 2 4 8 1 5 6 11 9 12 12 12 15 16 17 15 14 12 11 10 7 4 5 5 3 0 2 2 2 3 4 4 5
4 6 6 4 3 10 2 2 4 3 3 4 4 1 7 3 6 4 9 12 13 13 14 16 17 16 15 14 13 11 9 6 5 4 5 1 3 3 1 1 3 4 4 4
3 2 1 1 4 5 7 5 5 3 2 1 7 5 5 3 2 3 8 10 11 12 13 14 15 16 16 14 13 11 9 6 5 4 4 3 3 2 2 1 3 3 3 3
3 3 1 1 5 3 2 4 2 3 1 5 1 2 6 3 4 2 2 13 11 11 14 15 17 18 15 13 12 10 9 6 5 4 3 4 4 3 3 1 1 2 1 2
7 3 8 5 1 6 7 4 4 6 4 3 2 6 4 3 5 2 4 7 10 10 12 14 15 16 13 12 11 9 9 7 6 5 4 4 4 4 4 3 1 1 3 1
6 4 2 4 3 1 5 4 2 5 2 3 5 5 4 6 7 9 7 6 7 9 10 13 14 14 13 11 11 9 9 8 7 6 5 4 5 5 4 4 2 2 1 3
5 4 2 2 1 1 1 1 4 2 3 4 3 3 5 6 7 7 8 10 5 5 8 10 12 13 13 11 11 10 10 9 8 7 6 5 6 6 3 3 2 3 3 3
4 3 1 1 6 7 2 2 3 3 3 4 2 3 5 9 8 7 7 10 10 6 5 9 11 12 13 12 11 11 11 11 9 8 6 5 6 7 5 3 3 2 3 2
6 5 4 4 1 3 4 3 6 4 4 1 2 3 7 8 7 10 9 9 7 6 3 4 8 12 14 15 14 13 12 12 10 10 7 6 8 8 8 5 4 4 3 3
9 4 4 3 2 2 4 5 4 3 2 5 5 4 4 8 4 7 5 9 8 5 5 2 5 12 15 16 17 16 15 13 13 11 9 7 8 9 8 7 5 5 5 5
7 3 5 6 3 5 6 6 8 5 3 4 5 2 5 6 4 4 3 3 4 6 6 5 4 6 12 16 18 18 18 16 15 14 11 8 7 10 10 8 6 5 5 7
3 4 4 2 4 4 3 5 9 9 7 7 5 7 4 6 4 5 4 4 3 6 6 7 6 6 9 13 18 19 18 18 17 15 13 8 8 10 12 9 7 5 7 8
2 2 3 2 3 4 2 5 5 2 2 4 1 4 6 4 9 8 6 5 6 9 10 8 7 8 8 9 13 18 19 18 18 17 14 10 9 10 12 11 8 6 7 9
7 5 3 3 1 2 5 10 9 5 5 9 9 11 2 3 6 10 7 8 10 13 16 15 12 8 8 10 12 12 17 18 18 18 15 11 9 10 11 11 9 7 8 9
8 5 2 3 2 1 5 0 7 9 8 11 6 5 7 9 14 9 8 8 9 12 14 17 18 14 10 9 9 11 12 16 17 18 16 13 11 10 12 11 8 8 8 9
4 5 4 5 4 3 2 3 7 8 8 14 14 7 7 20 17 9 8 9 11 13 15 17 18 21 18 15 10 6 8 10 15 17 16 14 11 12 13 10 8 10 10 12
6 4 3 3 4 7 2 6 12 4 5 8 15 8 12 22 4 3 8 11 12 14 16 18 20 20 21 23 17 10 3 8 11 16 15 14 11 13 14 11 10 12 13 15
5 3 5 4 2 5 4 7 10 6 5 9 15 17 21 6 7 18 13 13 15 17 19 19 20 23 24 22 22 18 11 5 7 13 15 15 13 12 15 14 12 15 16 16
7 7 5 6 7 9 12 6 7 5 14 17 16 20 22 24 23 19 15 13 13 14 16 19 21 23 24 26 24 23 20 12 8 11 14 16 14 13 17 16 16 19 19 17
4 5 6 7 5 1 22 5 11 14 21 17 22 21 27 25 21 17 14 12 13 13 15 16 19 20 22 23 23 24 23 21 12 9 13 15 16 15 17 18 18 21 22 21
3 1 4 5 3 4 11 10 15 15 22 22 24 26 25 24 19 16 13 11 11 11 12 13 15 20 22 23 22 22 21 20 17 9 10 15 15 16 17 21 21 21 24 24
5 6 5 2 1 5 6 10 17 18 21 23 23 23 22 21 16 13 10 8 7 7 8 10 12 15 19 22 22 20 19 19 17 15 9 12 15 15 17 20 21 22 21 24
4 6 4 4 12 6 10 16 20 22 25 28 29 25 19 15 13 9 6 3 3 5 8 11 12 13 15 18 20 20 18 17 18 15 12 10 15 16 16 19 22 23 24 24
Wind_Direction
191 185 206 192 216 262 17 330 312 330 120 333 256 278 282 269 274 270 256 141 145 144 172 176 189 186 184 202 204 204 214 225 238 269 290 309 333 329 339 355 357 10 24 30
127 233 216 229 212 225 188 270 274 260 83 160 282 293 279 281 260 205 135 148 156 161 174 179 177 179 190 198 194 195 204 219 243 278 308 310 318 324 325 7 23 26 40 23
174 162 172 147 156 164 217 220 248 288 314 228 285 274 270 113 112 122 122 138 169 169 168 168 167 172 183 190 188 191 203 224 237 272 302 310 347 328 293 17 38 23 39 26
249 165 152 157 199 182 226 239 231 38 341 280 212 284 318 138 167 152 153 161 154 163 164 167 170 169 183 186 186 193 210 233 237 271 302 320 341 287 304 321 44 23 33 32
224 158 161 170 188 175 166 99 116 163 227 10 239 205 261 174 68 85 157 155 151 164 170 171 169 178 185 192 190 196 215 232 245 275 298 250 233 263 238 334 47 30 30 31
72 334 284 78 54 39 138 98 73 59 60 345 236 170 285 61 35 70 111 133 144 160 168 175 179 182 194 192 196 204 218 228 245 274 287 235 240 221 193 58 52 16 21 17
136 160 73 226 89 37 229 128 28 354 18 224 58 85 250 68 50 10 0 144 153 165 171 181 187 191 197 193 201 212 229 230 250 268 280 239 234 212 198 190 77 338 320 22
153 238 172 175 209 186 184 177 166 196 189 201 76 231 262 72 41 174 85 99 147 163 177 193 200 199 202 195 205 219 237 244 253 267 272 233 225 221 214 226 154 339 318 267
161 177 38 17 14 3 192 194 161 102 47 57 207 238 43 69 57 80 81 115 151 169 187 199 206 203 210 208 211 223 238 251 256 267 274 238 217 232 227 241 208 113 295 277
181 103 3 76 336 281 237 270 93 339 152 224 292 266 174 101 89 75 55 56 65 180 200 202 207 206 219 215 216 227 243 254 256 263 271 255 221 227 223 247 205 142 135 273
117 101 54 30 209 183 177 202 223 151 160 179 185 259 119 121 107 95 65 55 54 52 219 218 219 222 226 229 223 228 241 256 260 261 265 256 233 220 216 202 226 215 177 221
184 118 148 193 320 9 323 229 182 144 225 147 137 245 129 110 98 89 66 32 20 34 54 225 238 240 236 238 237 233 236 254 261 259 259 256 235 225 216 213 239 245 241 197
180 172 110 17 349 13 218 205 252 89 68 194 144 240 153 125 121 103 57 1 9 13 28 35 234 248 250 249 245 239 237 244 258 257 257 257 239 230 218 221 232 255 253 217
142 125 154 173 147 128 183 201 198 161 139 181 213 146 200 204 182 85 14 17 5 357 347 330 288 262 258 260 253 246 242 238 249 258 256 257 243 230 227 228 232 254 241 226
182 148 101 30 43 104 137 170 185 202 204 184 214 198 191 187 172 156 121 54 13 353 350 339 318 291 271 256 257 255 247 242 243 251 252 253 245 227 230 235 239 242 242 221
264 119 104 63 24 60 132 180 188 162 244 303 223 273 223 259 131 130 94 65 41 20 6 354 331 309 290 280 263 252 248 245 243 244 248 241 241 230 231 232 246 239 228 218
164 140 123 189 118 91 318 194 185 184 194 205 226 222 140 154 103 101 83 71 46 28 21 19 3 334 302 298 287 259 248 241 244 241 243 240 234 227 232 233 233 233 219 212
153 118 84 135 62 208 254 78 178 183 195 214 217 161 133 124 105 96 94 85 55 39 33 28 25 18 354 332 307 267 242 240 237 242 238 241 238 218 228 238 218 220 203 192
134 132 122 142 190 303 140 197 164 174 248 210 212 200 139 133 112 82 94 90 76 58 47 39 31 26 20 9 356 303 249 238 235 237 236 239 239 222 224 230 207 186 190 178
40 71 107 134 153 202 306 160 161 135 282 195 186 179 143 151 138 153 122 99 78 63 50 43 39 34 27 24 15 1 312 249 241 237 233 237 236 233 215 217 206 188 179 175
140 126 169 170 218 283 151 157 149 132 234 138 152 155 156 149 146 140 121 93 74 62 55 47 38 34 30 27 24 18 3 318 228 230 232 226 231 231 220 209 206 193 187 189
157 159 184 194 202 240 141 129 174 162 128 133 132 146 130 126 124 125 114 99 80 62 50 44 37 31 26 23 19 19 17 357 298 228 224 228 226 223 226 211 206 201 198 199
192 185 170 177 188 149 160 147 164 148 143 139 139 143 142 137 131 125 111 95 72 55 44 34 29 26 21 19 13 10 10 11 356 279 226 216 228 224 219 219 220 211 210 211
251 37 138 104 189 140 163 136 155 162 162 161 154 148 148 138 136 127 115 95 77 56 39 25 13 7 7 9 8 4 2 0 1 347 258 208 221 233 229 219 221 228 223 220
190 129 143 74 87 100 163 185 166 166 164 155 149 148 143 141 137 130 113 96 72 47 26 9 359 353 346 348 354 355 353 350 353 353 314 246 213 228 239 232 226 232 237 235
182 161 154 206 182 142 187 178 175 171 167 163 156 148 145 145 137 133 119 89 19 342 330 324 327 326 326 326 337 337 340 337 343 344 338 285 255 225 230 242 236 234 234 236